Location: Dana
(41.8364°N, 106.7042°W)
Time: 14:42:15
(UTC+00:00)

Transit 2A - Pass Details

Date: 18 May 2026
Orbit: 595 x 948 km, 66.7° (Epoch: 8 June)

Event Time Altitude Azimuth Distance (km) Brightness Sun altitude
Rises 07:14:32 0° 327° (NNW) 3,141 9.9 -28.5°
Reaches altitude 10° 07:16:59 10° 325° (NW) 2,161 8.9 -28.5°
Enters shadow 07:20:19 42° 312° (NW) 951 6.6 -28.5°
Maximum altitude 07:21:49 70° 243° (WSW) 696 - -28.4°
Drops below altitude 10° 07:26:14 10° 160° (SSE) 1,979 - -28.4°
Sets 07:28:24 0° 158° (SSE) 2,854 - -28.3°
